Location: Byszew
(52.1813°N, 19.2693°E)
Time: 00:15:04
(UTC+00:00)

Cosmos 1633 Rocket - Pass Details

Date: 03 March 2021
Orbit: 606 x 624 km, 82.5° (Epoch: 11 April)

Event Time Altitude Azimuth Distance (km) Brightness Sun altitude
Rises 17:57:51 0° 207° (SSW) 2,895 6.7 -14.8°
Reaches altitude 10° 18:00:09 10° 213° (SSW) 1,995 6.0 -15.1°
Maximum altitude 18:04:24 45° 286° (WNW) 861 4.3 -15.8°
Drops below altitude 10° 18:08:41 10° 0° (N) 2,011 5.8 -16.4°
Sets 18:11:01 0° 7° (N) 2,922 6.6 -16.8°
